Vorticity
2 2 2 2 1 0 0 1 1 1 1 2 1 1 1 1 2 2 2 2 2 2 2 2 2 1 2 2 2 2 1 2 2 1 2 2 2 2 3 2 3 2 2 2 2 3 3 2 3 3 3 3 4 3 3 4 3 4 3 5 10 7 1 3 8 4 -0 3 6 7 4 6 7 1 2 6 6 4 8 7 2 2 -1 3 8 6 4 3
1 1 1 1 1 0 1 1 1 1 1 1 1 1 1 1 1 2 2 2 2 2 2 2 2 2 2 2 2 2 1 2 2 1 2 2 2 3 3 2 3 3 3 3 3 4 4 4 4 4 4 4 5 4 5 5 4 4 3 8 12 4 1 6 6 2 3 5 6 7 5 6 6 2 3 6 4 7 13 7 1 3 0 2 10 9 5 3
1 1 1 1 1 1 1 1 1 0 1 1 1 1 1 1 1 1 2 2 2 2 2 2 2 2 2 2 2 3 3 3 3 3 4 3 2 3 3 3 3 4 4 4 4 5 5 4 5 6 6 7 7 6 7 6 5 5 6 12 11 3 5 7 4 3 5 6 8 9 5 5 5 3 5 3 6 14 14 5 1 4 3 1 6 10 8 5
1 0 -0 0 0 0 1 1 1 0 1 0 0 1 1 1 1 1 2 2 2 2 3 3 3 3 3 4 4 4 4 4 5 5 4 4 3 2 3 4 4 4 4 5 6 6 6 6 7 7 8 9 7 7 9 7 5 7 11 13 10 6 7 7 4 5 7 8 9 7 3 5 6 4 5 2 8 18 13 4 3 2 3 4 5 9 9 4
1 1 0 0 0 0 1 0 1 1 1 1 1 1 1 1 1 2 2 2 3 3 4 4 5 5 5 6 6 7 6 6 7 6 6 6 5 6 6 7 8 8 8 8 8 8 8 8 8 8 8 8 6 7 7 5 6 9 10 9 9 7 7 9 7 5 7 9 9 7 6 8 7 5 4 3 10 16 9 2 2 2 3 5 7 8 9 8
1 1 1 1 1 0 1 1 1 1 2 2 2 2 2 3 3 3 4 4 5 5 6 6 6 7 7 7 8 7 7 8 7 7 8 8 9 10 10 11 10 9 8 7 6 5 6 5 5 5 4 3 2 4 4 5 6 6 7 8 8 4 6 11 7 6 7 8 8 8 9 8 8 6 1 5 15 16 8 3 3 4 5 6 8 9 9 11
2 2 2 2 2 2 2 2 2 2 2 3 3 4 4 4 5 5 6 7 7 7 8 8 8 8 7 8 8 7 9 10 8 7 8 8 9 8 7 7 4 3 2 2 3 2 2 3 3 0 -1 -0 1 3 4 4 3 3 7 8 4 3 8 10 5 7 8 7 7 7 8 8 8 3 3 15 18 12 8 5 4 5 7 8 10 9 10 11
5 5 5 4 4 4 4 4 4 4 4 4 4 4 4 5 6 7 8 8 8 8 8 8 7 7 7 8 8 9 13 10 6 7 6 5 4 3 2 1 0 1 2 3 3 4 5 4 1 -0 2 4 5 7 6 5 6 8 7 4 3 5 8 6 4 7 8 8 8 7 7 9 5 -2 15 32 20 11 10 5 4 5 7 8 7 8 12 13
12 11 11 11 10 10 9 9 8 8 8 8 8 8 8 9 9 9 9 8 7 7 7 6 7 7 7 8 7 10 12 5 2 3 2 2 1 0 1 1 3 4 5 4 4 5 5 3 2 2 3 4 6 8 7 8 9 8 7 7 9 9 7 5 5 7 7 8 6 6 8 8 1 -4 15 25 13 9 7 2 2 4 7 6 5 8 12 14
12 13 13 13 14 13 13 13 12 12 12 11 11 10 10 9 9 8 7 6 6 6 5 5 6 6 7 7 6 9 8 1 0 1 1 2 3 4 4 3 4 4 4 3 4 4 3 2 2 1 2 3 5 7 6 5 5 6 7 9 11 11 10 10 9 8 7 7 7 6 5 3 -3 -5 2 4 5 10 7 5 4 4 8 7 5 6 7 11
7 7 7 8 8 8 9 9 9 10 9 9 9 8 8 7 6 5 5 5 5 5 4 4 4 4 4 4 4 5 2 -1 1 2 2 3 4 4 3 3 4 4 4 4 4 3 4 4 3 2 2 2 4 4 5 4 3 5 4 5 7 7 9 12 12 11 8 6 5 1 -1 0 -2 -3 2 5 7 11 10 10 5 2 6 5 4 4 4 8
4 4 4 4 5 5 5 5 6 6 6 6 5 5 5 4 4 3 3 3 3 3 3 3 3 2 1 2 4 1 -1 1 2 2 4 4 2 1 1 2 3 3 3 4 4 4 4 4 4 4 2 2 4 4 4 4 3 4 3 3 5 4 6 11 13 13 9 4 2 -0 1 8 7 2 7 8 5 7 9 9 7 4 4 2 2 3 3 5
2 2 2 2 2 2 2 3 3 3 2 2 2 2 1 1 1 1 1 2 2 2 3 3 3 3 2 4 5 4 4 6 5 6 6 3 3 4 6 6 5 5 4 4 5 5 6 5 5 4 3 4 4 3 3 3 4 4 2 2 3 4 6 11 11 7 5 3 4 6 6 11 11 6 7 6 4 7 8 7 9 7 4 4 3 2 2 3
2 1 1 1 1 1 1 1 1 1 2 2 2 2 2 2 3 3 3 4 4 4 4 4 4 5 4 6 7 7 8 9 8 7 4 4 7 8 9 7 7 7 6 6 6 6 6 5 5 5 5 5 4 3 3 4 5 3 1 3 6 6 5 7 4 -2 1 5 7 8 6 7 10 10 11 8 6 6 4 5 7 6 6 6 3 2 2 3
3 3 3 3 3 3 3 3 3 3 3 3 4 4 4 4 4 5 4 4 4 4 4 4 5 4 4 7 8 8 9 9 7 5 5 8 8 6 6 6 7 7 6 6 6 5 6 5 5 5 5 6 5 4 3 3 4 3 3 5 6 5 3 2 1 -0 4 7 6 7 6 7 10 13 15 12 9 9 8 7 5 4 4 4 5 5 4 4
5 4 4 4 5 4 4 4 4 4 4 4 4 3 4 3 3 4 4 4 3 3 4 4 5 4 5 7 7 8 9 6 4 4 6 6 4 4 5 6 7 8 8 8 7 6 6 6 6 6 6 7 7 5 3 3 4 6 6 5 3 3 3 2 3 5 5 6 5 6 6 7 8 10 12 12 10 11 14 16 15 13 8 6 5 4 5 5
4 4 4 4 4 4 4 4 4 4 4 3 3 3 3 3 3 3 3 4 4 4 4 5 5 5 6 7 7 9 8 5 4 4 3 3 3 3 3 3 5 7 9 10 10 10 7 7 6 5 6 6 6 4 2 4 6 6 3 2 2 2 4 3 4 6 5 5 4 5 7 5 3 5 8 9 7 5 11 17 19 21 20 17 13 9 7 5
4 4 4 4 4 4 4 4 4 5 5 5 5 5 5 5 5 5 5 5 5 6 5 5 6 5 6 6 7 7 6 6 5 3 1 1 1 0 1 1 3 5 8 9 9 10 9 8 7 6 5 4 5 3 3 5 4 2 -0 2 4 4 5 4 4 5 4 4 4 6 9 5 4 9 8 8 8 8 11 12 12 14 16 17 17 16 13 10
5 5 5 5 5 5 5 5 5 5 5 5 5 5 5 5 5 5 5 5 5 5 5 5 5 4 4 5 5 4 4 5 4 4 3 2 2 3 3 3 5 6 8 9 7 7 7 7 7 8 9 9 7 6 6 5 3 3 4 4 4 4 5 4 5 5 4 7 7 7 10 8 5 7 5 5 9 11 10 9 9 9 10 11 14 17 19 20
5 5 5 5 5 5 5 4 5 5 5 6 5 5 5 5 5 5 5 4 5 4 4 4 4 4 4 4 4 3 3 2 1 2 2 4 5 6 6 6 6 6 7 8 6 5 5 4 5 9 14 14 10 7 6 5 4 4 4 4 4 5 5 4 5 5 5 9 8 7 12 8 3 3 3 6 11 11 8 8 10 12 15 17 19 21 22 23
6 6 5 5 5 5 5 4 5 5 4 5 5 5 5 5 5 5 5 5 5 4 5 5 4 5 5 4 4 2 2 1 0 1 4 7 8 9 9 8 8 7 8 8 6 6 4 3 7 12 14 12 8 7 7 7 7 6 6 6 5 5 5 5 6 5 5 8 7 6 12 8 4 6 4 9 15 9 6 9 12 13 13 14 15 16 14 12
7 7 7 7 7 6 5 5 4 5 4 4 5 5 5 5 5 5 5 5 6 5 4 5 4 5 5 4 4 4 3 3 4 5 6 7 8 8 7 6 7 7 7 7 5 4 3 4 8 10 9 8 8 9 9 9 9 9 9 7 7 7 7 5 5 4 4 7 3 4 14 10 3 7 7 12 14 7 10 12 7 6 7 9 10 9 8 5
6 6 6 5 5 6 7 7 7 6 5 5 5 5 5 6 6 6 5 5 6 7 5 5 5 5 4 3 4 4 4 4 5 6 7 8 9 9 8 8 9 7 8 9 7 6 5 5 6 5 5 6 8 10 10 10 8 10 9 7 7 7 7 6 5 6 7 8 5 6 17 10 1 9 9 10 12 9 11 7 0 3 6 9 12 13 12 7
7 8 10 9 7 5 5 5 6 7 7 7 7 7 7 7 6 7 6 4 6 9 8 7 6 6 5 5 6 6 7 7 7 8 8 9 9 10 9 9 8 8 11 10 7 7 6 4 3 3 5 7 9 9 11 11 7 8 10 10 11 9 9 8 6 8 8 8 7 7 15 13 9 15 9 5 13 13 8 3 2 6 7 10 14 18 20 17
6 5 8 11 12 10 9 7 4 4 4 5 6 6 7 7 7 7 5 3 4 7 7 6 6 6 6 7 7 7 6 6 6 7 9 11 12 10 8 9 9 11 13 9 5 6 6 5 4 4 6 10 11 9 13 13 6 6 10 11 10 7 8 8 7 9 7 7 8 7 14 15 9 9 2 -2 7 11 8 4 4 7 9 12 10 6 7 10
9 9 6 6 9 10 11 12 10 8 6 5 4 4 4 5 5 6 6 6 5 4 4 4 3 4 5 5 5 5 6 7 7 9 11 12 12 9 8 12 15 15 14 9 2 4 10 8 6 8 8 7 9 13 19 16 7 6 11 11 9 9 10 8 7 7 6 7 9 6 9 12 5 -2 -3 1 8 11 4 -1 4 9 9 10 4 -6 -8 -4
12 14 12 10 9 6 6 9 12 13 14 14 14 11 9 6 5 5 6 7 6 3 2 3 4 6 6 6 7 6 6 6 6 7 7 5 3 2 3 6 8 6 4 2 -4 1 11 9 7 10 8 6 8 11 12 8 5 8 12 10 7 7 7 6 6 6 5 5 6 4 3 11 13 -4 -8 4 6 0 -5 -5 5 7 5 5 -3 -12 -10 -6
10 12 14 14 13 12 11 11 12 13 11 11 13 14 15 15 12 9 7 7 7 5 3 4 6 6 4 5 7 6 5 4 3 3 2 1 1 2 4 5 3 1 -0 -1 -3 3 8 6 4 5 5 9 10 8 4 1 3 6 6 4 3 4 4 4 6 4 4 4 5 5 -0 10 21 4 -4 6 3 -4 -5 -4 -0 1 0 -3 -13 -13 -4 1
10 10 10 10 11 12 11 10 12 13 10 7 7 8 10 13 15 15 11 7 4 2 3 4 5 6 5 5 7 7 8 8 6 6 5 5 7 8 11 10 8 6 6 4 4 7 9 7 7 7 9 11 9 7 5 2 3 3 4 5 3 4 3 4 5 3 5 6 6 7 3 11 24 14 6 10 5 0 -4 -7 -4 -2 -6 -12 -11 -1 5 5
11 10 8 7 8 8 7 8 10 12 14 15 15 14 13 13 15 16 12 8 9 10 10 8 6 7 8 8 9 10 11 12 11 11 11 9 10 11 10 9 9 10 10 10 11 12 11 10 11 13 15 13 10 9 7 4 4 3 4 5 4 5 4 3 5 2 4 8 8 7 5 11 20 15 9 9 3 -4 -9 -9 -4 -2 -6 -7 -0 3 3 4
9 10 10 10 8 7 9 9 8 8 9 9 11 13 14 14 12 9 6 8 13 13 10 11 10 12 14 13 13 14 15 17 19 22 24 24 23 21 18 16 14 14 13 13 16 17 14 14 15 16 14 11 9 9 9 9 11 10 10 10 10 9 5 4 5 3 6 12 11 6 4 10 13 7 5 3 -4 -8 -8 -7 -5 -4 -3 -1 1 -1 -0 4
7 5 5 6 6 8 9 8 7 5 4 3 3 2 3 6 6 4 5 9 12 13 13 16 16 15 16 14 15 17 19 20 20 18 18 20 22 22 24 24 21 20 19 15 16 16 12 11 13 15 16 13 11 11 11 11 12 12 11 12 13 12 10 11 11 10 13 14 7 1 4 12 9 0 0 -0 -6 -7 -6 -6 -6 -6 -4 -2 -2 -1 2 3
5 3 4 4 4 5 8 11 13 11 11 10 8 6 3 4 9 9 9 8 7 11 13 12 12 11 11 11 10 11 13 14 9 2 -1 2 6 9 16 22 23 25 25 20 19 17 12 10 8 12 17 13 9 11 12 11 11 11 10 10 11 12 14 15 13 13 13 10 5 2 6 12 5 -4 -5 -6 -8 -7 -8 -9 -7 -5 -2 0 -1 1 3 2
2 6 8 7 6 6 8 13 14 13 13 11 13 14 2 -2 8 10 10 8 5 6 7 7 8 6 5 8 6 2 5 10 7 3 4 5 6 8 7 4 1 3 3 4 7 8 11 13 5 2 9 6 2 4 7 9 10 9 7 6 6 7 10 15 17 18 14 7 4 4 4 4 -1 -5 -7 -7 -7 -7 -6 -5 -2 0 1 2 3 6 4 2
10 8 5 3 6 7 8 7 6 7 6 5 10 6 -9 -3 15 14 11 11 9 9 9 8 8 6 5 5 3 2 4 8 9 7 7 7 9 11 10 2 -3 -2 -1 1 6 5 6 11 5 -0 5 4 -1 -1 2 5 7 7 3 2 4 4 4 7 7 7 12 14 11 7 3 -2 -6 -8 -9 -7 -5 -5 -3 1 3 6 7 8 8 7 4 4
17 13 8 8 7 6 7 5 3 3 3 5 6 -3 -8 8 17 11 10 11 8 8 7 5 3 3 6 4 2 4 3 2 2 0 0 1 1 3 4 4 4 4 3 2 6 6 7 10 6 3 6 5 0 -0 2 3 5 7 3 -2 0 1 -2 0 3 4 6 8 6 3 2 1 -0 -2 -2 -1 -1 -3 -2 -0 2 7 9 11 11 9 9 11
7 8 6 4 1 3 7 5 4 4 4 8 3 -6 1 11 6 3 8 7 5 5 4 8 7 3 5 6 3 1 -1 -3 -4 -5 -3 -2 1 2 -2 -2 0 -2 -3 -2 -1 1 4 6 2 -1 4 10 10 10 8 5 3 5 7 7 7 7 4 5 12 16 12 8 8 4 -0 -2 -4 -6 -2 0 -2 -4 -2 3 9 15 16 16 17 18 18 18
4 7 5 -2 -6 1 5 3 3 5 9 15 9 1 6 8 2 2 1 -2 -0 2 2 8 10 7 6 8 7 3 1 1 1 -1 -1 -1 3 3 -6 -6 -1 -5 -6 -1 -1 -0 6 12 9 -1 -1 4 3 -2 -4 -2 1 4 11 14 13 14 15 10 4 -0 -3 -3 2 4 5 6 2 -2 2 5 7 9 10 11 11 11 14 18 22 24 22 21
2 6 8 1 -4 0 4 5 4 0 5 13 11 7 7 2 -1 -3 -4 -1 2 2 4 5 5 7 8 6 5 3 1 3 4 3 5 5 7 7 -2 -3 2 -2 -4 1 5 8 8 8 8 4 0 1 -3 -7 -4 3 8 9 9 8 7 6 4 2 -2 -5 -3 1 6 14 20 20 16 12 8 8 11 14 18 20 19 18 19 18 18 17 12 13
1 4 7 4 -1 -0 4 7 5 1 6 11 8 6 5 2 2 -3 -4 3 6 4 8 8 5 7 9 8 6 5 6 8 7 7 9 7 7 10 5 2 6 7 5 5 6 6 -1 -5 3 9 5 -0 -2 3 9 9 7 4 -2 -5 -3 -3 -5 -1 2 0 1 4 6 6 6 10 21 22 12 6 11 21 29 27 23 27 26 15 6 5 4 7
1 3 5 5 3 3 4 5 5 3 7 11 9 8 6 7 9 2 -4 1 5 7 10 9 8 8 9 10 9 8 8 7 7 7 7 6 8 11 12 11 13 13 11 9 5 7 13 16 17 16 10 5 4 6 6 1 -3 -4 -7 -9 -7 -5 -2 3 5 2 3 7 8 10 11 13 22 24 16 14 17 20 21 14 9 18 24 18 12 10 12 10
2 1 3 4 4 6 6 3 2 2 2 7 11 11 9 9 11 8 2 2 5 8 10 9 12 15 15 16 18 16 13 10 10 8 7 8 9 8 10 14 14 11 11 11 8 11 18 14 7 8 12 13 10 5 2 0 1 2 2 3 8 11 10 7 8 13 21 22 18 21 20 7 0 6 15 27 28 20 16 13 12 14 11 3 -1 -1 3 7
9 9 10 9 7 8 8 3 5 9 10 12 13 9 8 9 9 8 8 12 15 15 13 12 14 15 14 17 19 16 15 15 14 13 13 11 8 6 9 10 9 11 17 19 20 20 13 4 4 11 16 17 15 13 11 8 6 8 11 13 16 20 21 18 15 16 14 7 1 2 -2 -10 -9 0 9 20 25 22 19 13 8 9 5 -6 -12 -12 -8 -4
15 14 13 13 11 11 9 7 13 17 15 14 12 11 12 10 10 12 14 17 16 12 12 13 12 12 13 15 14 12 15 19 19 20 19 16 16 17 15 12 9 12 13 11 11 11 7 4 7 9 8 11 13 14 16 12 7 9 14 13 8 8 12 11 10 11 6 0 2 3 -3 -6 -1 1 -2 -5 -7 -12 -16 -21 -17 -1 6 6 8 11 8 -0
21 20 19 19 18 17 14 14 17 15 11 12 12 13 14 10 11 17 18 15 11 8 10 9 8 11 13 13 11 10 12 13 12 15 16 18 22 23 23 25 25 23 19 14 10 9 10 11 13 15 15 17 17 15 17 15 10 8 7 4 3 5 6 7 10 13 8 4 9 10 5 6 11 11 10 12 15 10 -1 -10 -7 -4 -7 -9 -5 -6 -8 -12
13 15 15 17 16 13 12 14 14 11 10 12 12 11 11 12 14 16 13 12 12 13 12 9 7 8 4 2 2 2 2 1 0 1 4 7 8 8 11 14 14 13 14 17 19 20 22 21 19 19 19 20 21 21 23 25 22 19 17 16 14 9 6 11 13 8 5 12 19 18 17 19 21 21 22 27 31 29 22 19 23 22 15 11 6 -2 -6 -7
5 6 7 8 7 6 8 10 10 10 10 11 9 8 8 8 10 10 10 13 15 15 12 10 9 9 6 5 7 6 6 8 6 3 2 2 -0 -1 -1 -4 -7 -7 -4 -1 1 4 6 3 -0 0 2 2 3 4 8 11 10 11 15 18 18 18 20 18 10 5 14 24 21 15 15 15 14 14 14 12 8 7 11 16 17 15 12 10 8 9 12 13
5 6 6 4 3 4 7 9 9 9 10 10 10 8 8 10 11 12 14 15 14 12 11 10 10 12 12 12 13 13 13 13 10 8 7 5 4 5 5 5 5 4 4 2 0 1 3 -1 -3 2 4 1 1 3 4 4 6 9 12 11 9 8 4 -1 -2 5 12 6 -4 -2 4 8 10 10 8 8 8 8 13 14 11 10 14 18 21 22 22 20
7 8 8 7 6 6 7 8 9 9 10 11 10 9 11 14 13 12 13 11 9 9 10 11 11 12 13 12 12 12 12 11 11 11 11 11 12 11 11 11 11 10 10 9 7 8 8 6 6 9 10 8 9 10 11 13 14 12 11 11 10 8 7 9 14 16 10 0 -1 5 7 8 10 11 12 15 16 15 14 12 12 15 17 18 19 15 12 11
8 8 8 8 9 9 8 8 9 10 10 10 9 11 15 15 13 12 11 10 11 12 12 10 9 11 11 11 11 10 9 10 10 11 11 10 9 9 8 8 8 9 11 12 13 13 10 9 12 14 15 14 12 16 27 35 36 33 28 18 8 9 16 17 12 8 8 11 12 10 10 12 12 9 8 8 7 8 10 10 10 9 5 3 6 10 14 18
8 8 8 8 10 11 10 9 10 9 8 8 9 13 14 12 11 13 13 12 12 11 10 10 9 11 11 10 11 12 12 12 12 13 15 15 15 16 16 14 13 12 10 9 10 11 10 13 17 17 17 18 20 28 36 34 29 26 20 12 9 10 12 15 23 29 27 22 20 18 17 13 7 3 3 4 5 6 9 11 12 12 13 16 19 21 20 15
10 10 10 9 9 9 10 11 10 8 8 9 9 8 7 7 9 11 12 13 12 10 11 12 10 10 11 10 11 11 10 10 11 12 16 21 25 27 23 16 13 12 10 9 9 10 13 14 14 11 8 6 7 6 -0 -9 -15 -24 -32 -23 -3 3 -1 6 22 27 20 18 20 14 -0 -9 -10 -9 -7 -3 -1 -2 -1 0 -2 -5 -2 2 1 -4 -8 -12
Height
5875 5875 5875 5876 5876 5876 5877 5877 5877 5877 5877 5877 5877 5877 5877 5877 5877 5877 5877 5877 5877 5877 5876 5876 5876 5876 5876 5876 5876 5876 5876 5876 5876 5876 5876 5876 5875 5875 5875 5874 5874 5873 5873 5873 5872 5872 5871 5870 5870 5870 5869 5868 5868 5867 5867 5866 5866 5865 5865 5865 5864 5862 5862 5862 5861 5860 5860 5859 5858 5857 5857 5858 5858 5856 5857 5857 5856 5855 5855 5854 5852 5852 5852 5852 5852 5851 5851 5850
5873 5873 5873 5874 5874 5874 5875 5875 5875 5875 5875 5875 5876 5876 5876 5876 5875 5875 5875 5875 5875 5875 5875 5875 5875 5875 5875 5875 5875 5875 5874 5874 5874 5874 5874 5874 5873 5873 5872 5872 5872 5871 5871 5871 5870 5870 5869 5868 5867 5867 5866 5866 5865 5865 5864 5864 5863 5863 5863 5864 5862 5859 5860 5859 5858 5857 5857 5857 5857 5855 5854 5855 5855 5854 5854 5855 5854 5853 5852 5851 5849 5850 5850 5849 5850 5849 5849 5848
5871 5871 5871 5872 5872 5872 5873 5873 5873 5873 5873 5873 5874 5874 5874 5874 5874 5874 5873 5873 5873 5873 5873 5873 5873 5873 5873 5873 5873 5873 5873 5872 5871 5871 5872 5871 5871 5871 5870 5870 5869 5869 5869 5868 5868 5867 5866 5865 5865 5864 5864 5863 5863 5862 5862 5861 5861 5861 5861 5861 5860 5857 5858 5857 5854 5854 5854 5855 5855 5853 5852 5852 5852 5852 5852 5852 5851 5851 5848 5847 5847 5848 5847 5846 5847 5847 5847 5846
5868 5869 5869 5869 5870 5870 5870 5870 5871 5871 5871 5871 5871 5872 5872 5872 5872 5871 5871 5871 5871 5871 5871 5871 5871 5871 5871 5871 5871 5871 5871 5870 5869 5869 5869 5869 5869 5868 5868 5867 5867 5867 5866 5866 5865 5865 5864 5863 5862 5861 5861 5860 5860 5860 5859 5858 5857 5859 5859 5858 5857 5854 5856 5854 5850 5851 5851 5851 5852 5851 5850 5850 5849 5849 5850 5849 5849 5850 5845 5843 5845 5845 5844 5844 5844 5845 5845 5844
5866 5866 5867 5867 5867 5867 5868 5868 5868 5868 5868 5869 5869 5869 5869 5869 5869 5869 5869 5869 5869 5869 5869 5869 5869 5869 5869 5869 5869 5869 5869 5868 5867 5867 5867 5867 5866 5866 5866 5865 5865 5864 5864 5863 5863 5862 5861 5861 5860 5859 5858 5858 5857 5857 5856 5854 5854 5857 5857 5855 5854 5852 5853 5852 5847 5847 5848 5848 5848 5847 5847 5847 5846 5846 5846 5845 5846 5848 5843 5839 5842 5841 5841 5841 5841 5841 5841 5841
5863 5864 5864 5864 5865 5865 5865 5865 5865 5865 5866 5866 5866 5866 5866 5867 5866 5866 5866 5866 5866 5866 5866 5866 5866 5866 5866 5867 5867 5867 5867 5865 5864 5864 5864 5864 5864 5864 5863 5863 5863 5862 5862 5861 5860 5859 5859 5858 5858 5856 5856 5855 5855 5855 5853 5852 5851 5853 5855 5853 5850 5849 5851 5850 5846 5845 5844 5844 5844 5842 5843 5844 5843 5842 5843 5842 5842 5844 5840 5835 5837 5838 5837 5837 5838 5838 5837 5837
5860 5861 5861 5861 5862 5862 5862 5862 5862 5862 5863 5863 5863 5863 5863 5863 5863 5863 5863 5863 5863 5863 5863 5863 5863 5863 5863 5864 5864 5865 5866 5862 5860 5862 5862 5861 5861 5861 5861 5861 5860 5860 5859 5858 5858 5857 5856 5856 5855 5853 5853 5853 5853 5852 5851 5849 5848 5849 5851 5850 5847 5847 5848 5847 5844 5843 5841 5840 5840 5837 5838 5840 5838 5837 5840 5841 5840 5840 5836 5832 5832 5834 5834 5834 5834 5833 5833 5833
5857 5857 5858 5858 5858 5859 5859 5859 5859 5859 5859 5859 5859 5859 5859 5860 5860 5860 5860 5860 5859 5859 5860 5859 5860 5860 5860 5862 5862 5863 5864 5859 5856 5859 5860 5859 5859 5859 5859 5858 5858 5858 5857 5856 5855 5854 5854 5853 5851 5850 5850 5851 5850 5850 5848 5846 5846 5846 5847 5846 5845 5845 5844 5843 5842 5841 5838 5837 5836 5833 5833 5836 5834 5832 5836 5840 5838 5835 5831 5828 5829 5829 5830 5830 5830 5829 5829 5829
5853 5854 5854 5855 5855 5855 5855 5856 5856 5856 5856 5856 5856 5856 5856 5856 5856 5856 5856 5856 5856 5856 5856 5856 5857 5857 5858 5859 5859 5862 5861 5854 5854 5857 5857 5857 5857 5856 5856 5856 5855 5855 5854 5853 5852 5851 5851 5849 5848 5847 5846 5847 5847 5847 5845 5843 5843 5843 5842 5842 5842 5842 5841 5841 5840 5838 5835 5834 5833 5829 5829 5831 5829 5828 5834 5838 5834 5830 5827 5825 5825 5826 5827 5827 5826 5825 5825 5826
5850 5850 5850 5851 5851 5851 5852 5852 5852 5852 5852 5852 5852 5852 5853 5853 5853 5853 5853 5852 5852 5852 5852 5852 5853 5853 5854 5855 5857 5861 5857 5851 5852 5854 5853 5853 5853 5853 5852 5852 5852 5851 5851 5850 5849 5848 5847 5846 5845 5843 5842 5843 5844 5844 5842 5840 5840 5840 5838 5838 5839 5838 5839 5838 5837 5836 5832 5831 5830 5825 5824 5827 5825 5825 5832 5836 5831 5826 5824 5823 5822 5822 5823 5823 5822 5822 5821 5822
5846 5847 5847 5848 5848 5848 5848 5848 5849 5849 5849 5849 5849 5849 5849 5849 5850 5850 5849 5849 5849 5849 5849 5849 5849 5850 5851 5852 5855 5858 5853 5849 5851 5851 5850 5849 5849 5849 5849 5849 5849 5848 5848 5847 5846 5845 5843 5842 5841 5840 5839 5839 5840 5840 5839 5838 5837 5836 5834 5834 5836 5834 5835 5836 5834 5833 5829 5828 5826 5820 5817 5821 5822 5822 5829 5832 5827 5822 5821 5821 5820 5818 5819 5819 5819 5818 5818 5819
5843 5843 5844 5844 5844 5845 5845 5845 5845 5845 5845 5845 5845 5845 5845 5846 5846 5846 5846 5846 5845 5845 5845 5845 5845 5846 5846 5849 5853 5853 5849 5849 5849 5847 5846 5844 5844 5846 5846 5845 5845 5844 5844 5843 5842 5841 5839 5838 5837 5836 5835 5834 5837 5836 5835 5836 5833 5833 5830 5829 5832 5831 5832 5834 5830 5828 5826 5823 5823 5817 5811 5815 5820 5821 5826 5828 5822 5818 5817 5818 5817 5815 5815 5815 5815 5815 5815 5815
5839 5839 5840 5840 5841 5841 5841 5842 5842 5842 5841 5841 5841 5842 5841 5842 5842 5843 5843 5842 5842 5842 5842 5841 5841 5842 5842 5846 5850 5848 5847 5847 5846 5843 5841 5839 5840 5842 5842 5842 5841 5841 5840 5839 5838 5837 5835 5834 5833 5832 5831 5830 5832 5832 5832 5832 5830 5830 5827 5824 5827 5827 5829 5832 5827 5823 5823 5820 5819 5814 5805 5809 5818 5819 5823 5823 5817 5814 5814 5815 5814 5813 5813 5811 5811 5811 5811 5812
5835 5835 5836 5836 5837 5837 5837 5838 5838 5838 5838 5838 5838 5837 5837 5838 5838 5839 5839 5838 5838 5838 5838 5837 5838 5837 5837 5843 5846 5845 5844 5843 5842 5839 5836 5835 5837 5838 5839 5838 5837 5837 5836 5835 5834 5833 5831 5830 5828 5827 5827 5827 5828 5828 5828 5827 5826 5826 5823 5821 5822 5819 5823 5828 5823 5820 5821 5819 5817 5810 5800 5803 5813 5816 5818 5818 5813 5811 5811 5811 5810 5811 5811 5809 5808 5808 5808 5809
5831 5831 5832 5832 5832 5833 5833 5834 5834 5834 5834 5834 5834 5833 5833 5833 5833 5834 5834 5834 5834 5833 5833 5833 5834 5833 5833 5839 5842 5841 5841 5839 5837 5835 5833 5834 5834 5834 5835 5834 5833 5833 5832 5831 5830 5829 5827 5826 5824 5822 5822 5823 5824 5825 5825 5821 5821 5823 5819 5817 5818 5812 5813 5820 5820 5818 5819 5816 5813 5806 5797 5797 5807 5812 5814 5813 5810 5808 5806 5806 5807 5808 5809 5807 5806 5805 5804 5804
5827 5827 5827 5828 5828 5828 5829 5829 5829 5830 5829 5830 5830 5829 5829 5829 5829 5829 5830 5830 5829 5829 5829 5828 5829 5828 5828 5834 5838 5837 5837 5836 5834 5832 5831 5831 5831 5831 5832 5830 5830 5828 5827 5826 5825 5824 5823 5821 5819 5817 5817 5818 5820 5823 5821 5815 5816 5820 5814 5809 5811 5808 5806 5810 5816 5819 5817 5811 5807 5802 5794 5792 5801 5807 5809 5808 5806 5804 5801 5802 5803 5804 5805 5804 5803 5802 5800 5799
5822 5822 5823 5823 5823 5823 5824 5824 5824 5825 5824 5825 5825 5825 5825 5825 5824 5824 5825 5825 5825 5825 5824 5824 5825 5823 5823 5829 5832 5833 5833 5831 5831 5829 5828 5828 5828 5828 5827 5826 5825 5824 5822 5821 5820 5820 5819 5816 5814 5812 5812 5813 5817 5820 5815 5809 5812 5814 5809 5804 5803 5804 5802 5802 5809 5816 5815 5806 5800 5796 5790 5790 5796 5800 5803 5803 5802 5800 5799 5800 5800 5801 5801 5800 5799 5797 5795 5794
5817 5817 5818 5818 5818 5818 5819 5819 5819 5819 5819 5819 5820 5820 5820 5820 5820 5819 5820 5820 5820 5820 5819 5820 5820 5818 5820 5824 5826 5828 5828 5827 5827 5826 5825 5825 5825 5824 5823 5822 5821 5819 5818 5816 5816 5816 5813 5811 5808 5807 5807 5810 5815 5816 5809 5806 5806 5805 5803 5801 5798 5798 5798 5797 5803 5809 5808 5801 5795 5791 5787 5787 5792 5793 5796 5800 5799 5796 5797 5798 5797 5797 5796 5795 5794 5792 5791 5791
5812 5812 5813 5813 5813 5813 5813 5814 5814 5814 5814 5814 5814 5815 5815 5815 5815 5814 5814 5814 5815 5815 5814 5815 5816 5814 5815 5819 5820 5820 5821 5821 5822 5822 5822 5822 5821 5820 5818 5817 5816 5815 5813 5812 5812 5810 5807 5805 5803 5802 5804 5808 5811 5809 5803 5802 5801 5798 5797 5796 5794 5794 5793 5795 5799 5801 5799 5793 5788 5787 5785 5783 5786 5788 5791 5796 5796 5792 5793 5796 5794 5793 5792 5790 5789 5788 5789 5788
5807 5807 5807 5808 5808 5808 5808 5808 5808 5809 5809 5809 5809 5809 5810 5810 5810 5809 5809 5809 5810 5810 5809 5809 5810 5810 5811 5814 5814 5813 5814 5814 5816 5817 5818 5818 5817 5815 5814 5812 5811 5809 5808 5809 5806 5804 5803 5799 5797 5800 5804 5805 5804 5800 5798 5798 5797 5794 5792 5790 5790 5788 5788 5793 5795 5795 5793 5784 5779 5782 5782 5779 5781 5783 5786 5790 5792 5790 5789 5791 5790 5789 5788 5786 5786 5786 5785 5784
5802 5802 5802 5803 5803 5803 5803 5803 5803 5803 5804 5804 5804 5804 5804 5804 5804 5804 5804 5805 5805 5804 5804 5804 5803 5804 5807 5808 5806 5806 5806 5807 5810 5812 5812 5812 5811 5810 5809 5808 5806 5804 5804 5803 5800 5799 5798 5793 5794 5800 5801 5798 5795 5793 5793 5793 5792 5790 5788 5786 5785 5784 5785 5789 5789 5789 5788 5778 5773 5776 5775 5773 5776 5777 5781 5784 5786 5787 5786 5783 5783 5785 5785 5784 5783 5782 5781 5780
5796 5796 5797 5797 5797 5798 5798 5798 5798 5798 5798 5798 5798 5798 5798 5798 5798 5797 5797 5798 5801 5801 5798 5799 5798 5798 5801 5800 5799 5800 5799 5801 5804 5805 5804 5805 5805 5803 5802 5802 5800 5800 5799 5796 5796 5797 5792 5788 5793 5797 5793 5790 5789 5789 5788 5787 5786 5784 5784 5782 5780 5781 5781 5781 5783 5783 5782 5775 5771 5772 5767 5766 5770 5771 5774 5780 5782 5783 5783 5779 5777 5780 5782 5782 5780 5779 5777 5775
5791 5791 5791 5791 5792 5792 5792 5792 5792 5792 5792 5792 5793 5793 5792 5792 5792 5792 5791 5790 5794 5797 5795 5794 5793 5792 5794 5793 5792 5794 5794 5795 5797 5797 5797 5796 5797 5796 5795 5795 5795 5793 5792 5793 5794 5791 5785 5785 5790 5790 5786 5785 5784 5783 5782 5780 5780 5780 5779 5778 5776 5778 5777 5774 5774 5775 5775 5772 5769 5769 5763 5759 5763 5765 5767 5774 5779 5779 5778 5776 5775 5775 5777 5778 5777 5775 5774 5772
5785 5785 5785 5786 5786 5786 5786 5787 5787 5787 5787 5786 5787 5787 5786 5787 5786 5786 5785 5783 5784 5789 5791 5790 5788 5787 5787 5787 5787 5788 5788 5790 5790 5791 5790 5789 5789 5788 5788 5789 5787 5787 5788 5789 5788 5784 5780 5782 5784 5783 5781 5780 5778 5776 5775 5774 5775 5776 5775 5773 5773 5774 5772 5768 5768 5767 5768 5768 5766 5766 5760 5755 5758 5758 5760 5769 5774 5773 5773 5773 5774 5774 5773 5773 5772 5772 5771 5770
5779 5779 5780 5780 5780 5780 5780 5780 5780 5781 5781 5780 5780 5780 5780 5780 5781 5780 5779 5777 5776 5779 5782 5782 5783 5782 5781 5782 5782 5783 5783 5783 5783 5783 5783 5782 5781 5781 5781 5781 5780 5782 5783 5783 5781 5778 5777 5778 5779 5778 5776 5774 5771 5770 5770 5769 5769 5771 5769 5768 5768 5768 5766 5765 5764 5762 5761 5762 5763 5762 5757 5752 5753 5753 5754 5762 5767 5766 5766 5768 5770 5770 5770 5769 5767 5767 5767 5767
5773 5773 5774 5774 5774 5774 5774 5774 5774 5774 5774 5774 5774 5774 5774 5774 5774 5774 5774 5772 5769 5772 5772 5771 5773 5776 5777 5777 5778 5778 5777 5777 5777 5776 5775 5775 5774 5773 5774 5774 5774 5776 5776 5774 5773 5771 5772 5775 5774 5772 5770 5767 5765 5765 5766 5765 5763 5763 5763 5762 5763 5762 5761 5761 5760 5758 5757 5756 5756 5756 5753 5749 5749 5750 5752 5755 5758 5758 5758 5762 5764 5764 5764 5765 5764 5762 5761 5761
5766 5766 5767 5768 5768 5768 5768 5768 5768 5767 5767 5767 5768 5768 5768 5768 5768 5769 5769 5767 5764 5765 5763 5760 5762 5768 5771 5772 5773 5773 5771 5771 5771 5770 5769 5768 5768 5768 5767 5767 5768 5768 5768 5766 5764 5764 5767 5769 5768 5766 5764 5761 5760 5761 5762 5759 5755 5756 5757 5756 5756 5756 5756 5756 5755 5753 5752 5752 5751 5749 5748 5745 5745 5748 5750 5748 5747 5747 5749 5755 5758 5758 5757 5759 5760 5759 5756 5753
5760 5760 5761 5761 5762 5762 5762 5762 5761 5760 5760 5761 5761 5761 5761 5762 5763 5764 5764 5761 5757 5756 5755 5754 5755 5760 5763 5764 5765 5766 5765 5765 5765 5763 5764 5762 5761 5762 5760 5761 5760 5759 5760 5758 5756 5759 5760 5759 5760 5759 5757 5755 5756 5757 5756 5752 5749 5750 5751 5749 5749 5749 5749 5749 5749 5748 5746 5746 5745 5743 5744 5744 5744 5746 5746 5743 5740 5740 5742 5745 5748 5750 5751 5752 5753 5753 5753 5749
5753 5754 5754 5754 5756 5755 5755 5755 5754 5753 5754 5754 5754 5755 5756 5757 5757 5759 5759 5754 5749 5747 5750 5752 5751 5752 5754 5755 5756 5758 5758 5758 5758 5757 5757 5755 5754 5754 5753 5753 5753 5752 5752 5750 5750 5753 5752 5751 5752 5750 5749 5750 5751 5750 5748 5746 5745 5745 5745 5743 5743 5742 5742 5742 5742 5741 5740 5739 5738 5738 5740 5742 5742 5743 5743 5739 5736 5738 5739 5738 5737 5738 5741 5743 5743 5742 5742 5743
5747 5747 5747 5748 5749 5748 5749 5750 5748 5747 5747 5747 5747 5748 5750 5751 5753 5753 5750 5745 5742 5743 5747 5748 5745 5744 5746 5747 5747 5748 5749 5749 5750 5749 5748 5747 5746 5746 5746 5746 5745 5744 5744 5742 5743 5746 5745 5744 5744 5743 5742 5743 5743 5742 5741 5741 5740 5739 5739 5738 5737 5736 5736 5734 5733 5734 5731 5730 5734 5735 5737 5739 5736 5735 5736 5735 5734 5736 5736 5735 5733 5730 5731 5733 5734 5733 5731 5731
5741 5741 5741 5742 5743 5742 5743 5744 5742 5741 5741 5741 5741 5742 5742 5745 5747 5745 5739 5738 5739 5740 5743 5742 5739 5739 5740 5739 5740 5740 5739 5739 5740 5740 5739 5740 5739 5739 5739 5739 5737 5736 5736 5735 5736 5739 5738 5736 5736 5736 5736 5735 5735 5735 5735 5735 5734 5734 5733 5733 5731 5730 5729 5726 5725 5725 5722 5724 5731 5731 5731 5733 5730 5727 5729 5730 5730 5732 5732 5732 5730 5727 5726 5725 5725 5726 5723 5720
5734 5734 5735 5735 5736 5735 5735 5736 5735 5735 5735 5735 5735 5736 5736 5737 5738 5736 5733 5734 5734 5733 5736 5737 5734 5734 5733 5733 5734 5733 5731 5731 5731 5731 5731 5731 5733 5733 5733 5733 5731 5729 5728 5729 5729 5730 5731 5730 5729 5729 5730 5731 5729 5729 5729 5729 5729 5728 5727 5726 5724 5723 5721 5718 5717 5717 5716 5720 5726 5724 5722 5722 5721 5721 5724 5725 5726 5728 5728 5726 5725 5725 5723 5722 5720 5718 5716 5712
5727 5728 5728 5728 5729 5729 5728 5728 5728 5727 5728 5728 5728 5729 5730 5729 5728 5729 5729 5730 5729 5728 5731 5730 5728 5728 5727 5727 5728 5726 5725 5725 5725 5724 5724 5724 5726 5728 5728 5727 5727 5724 5723 5723 5722 5722 5723 5724 5725 5723 5725 5726 5723 5722 5723 5723 5723 5721 5721 5720 5717 5716 5713 5709 5711 5711 5712 5716 5717 5714 5712 5709 5712 5718 5720 5723 5725 5724 5723 5720 5719 5719 5718 5718 5716 5712 5709 5707
5721 5722 5722 5722 5723 5723 5722 5721 5721 5721 5720 5720 5720 5722 5722 5720 5722 5724 5723 5724 5723 5723 5725 5724 5722 5722 5721 5721 5721 5720 5719 5717 5717 5718 5717 5717 5718 5721 5722 5723 5723 5721 5719 5718 5716 5715 5714 5717 5720 5717 5717 5719 5718 5717 5717 5716 5716 5714 5715 5713 5710 5711 5707 5703 5705 5705 5705 5707 5705 5704 5702 5702 5708 5714 5715 5718 5719 5717 5716 5714 5713 5711 5710 5709 5708 5705 5703 5701
5715 5715 5715 5716 5716 5716 5715 5714 5714 5713 5712 5713 5713 5713 5714 5715 5717 5718 5718 5718 5717 5716 5718 5718 5717 5716 5715 5716 5715 5715 5714 5709 5709 5711 5710 5711 5711 5713 5716 5718 5718 5717 5715 5712 5711 5710 5707 5709 5713 5709 5709 5712 5712 5711 5709 5708 5708 5708 5708 5706 5703 5706 5704 5698 5697 5697 5697 5695 5694 5695 5693 5696 5705 5708 5710 5711 5710 5710 5709 5708 5707 5704 5701 5700 5697 5696 5696 5693
5708 5708 5709 5710 5710 5708 5707 5707 5707 5705 5704 5706 5704 5704 5710 5712 5713 5713 5713 5713 5711 5711 5711 5710 5711 5710 5709 5709 5709 5709 5708 5703 5702 5702 5702 5703 5704 5706 5710 5711 5712 5711 5708 5705 5704 5703 5700 5703 5706 5703 5701 5704 5703 5702 5701 5700 5699 5699 5699 5699 5698 5698 5696 5691 5686 5688 5689 5682 5683 5689 5686 5689 5696 5699 5705 5707 5704 5704 5702 5700 5700 5696 5693 5692 5689 5688 5688 5686
5699 5700 5702 5704 5702 5699 5699 5700 5699 5697 5696 5696 5695 5699 5706 5707 5708 5709 5708 5707 5706 5705 5703 5701 5703 5704 5702 5702 5703 5703 5699 5696 5695 5695 5694 5694 5694 5699 5703 5704 5705 5704 5702 5698 5695 5695 5693 5694 5700 5699 5694 5695 5696 5694 5692 5692 5690 5689 5689 5691 5691 5688 5687 5685 5679 5678 5678 5670 5671 5679 5680 5683 5687 5688 5697 5703 5701 5700 5696 5692 5690 5688 5686 5685 5683 5681 5679 5679
5692 5692 5695 5697 5694 5691 5691 5692 5690 5689 5687 5686 5688 5694 5698 5700 5703 5704 5701 5701 5699 5696 5694 5692 5694 5695 5694 5695 5697 5696 5692 5689 5688 5687 5687 5686 5686 5690 5694 5695 5696 5696 5694 5691 5686 5686 5685 5683 5690 5695 5689 5686 5689 5688 5684 5684 5683 5680 5681 5683 5683 5679 5678 5678 5672 5668 5667 5661 5659 5664 5667 5672 5678 5683 5690 5693 5693 5693 5688 5684 5681 5679 5678 5676 5674 5673 5669 5668
5684 5685 5687 5689 5687 5683 5683 5683 5681 5680 5676 5677 5682 5687 5690 5693 5696 5695 5694 5693 5690 5687 5685 5686 5686 5685 5686 5688 5689 5688 5685 5682 5680 5679 5679 5679 5678 5682 5685 5685 5686 5687 5685 5683 5678 5678 5677 5671 5675 5686 5684 5677 5680 5682 5679 5678 5677 5674 5673 5673 5673 5672 5669 5667 5663 5660 5658 5653 5650 5651 5650 5655 5667 5680 5684 5681 5680 5680 5678 5675 5673 5671 5670 5666 5663 5662 5659 5658
5677 5678 5679 5680 5679 5676 5675 5673 5672 5670 5668 5670 5677 5679 5680 5683 5685 5687 5686 5682 5681 5679 5677 5677 5677 5676 5677 5680 5680 5679 5677 5673 5673 5673 5671 5671 5672 5674 5676 5676 5676 5676 5675 5673 5670 5668 5668 5661 5660 5671 5674 5668 5671 5676 5674 5672 5670 5667 5665 5663 5663 5663 5661 5656 5652 5652 5652 5646 5642 5640 5635 5641 5657 5670 5675 5672 5667 5666 5665 5663 5661 5662 5660 5656 5654 5651 5649 5648
5669 5670 5670 5671 5670 5668 5666 5663 5662 5663 5661 5663 5669 5671 5671 5672 5675 5677 5676 5672 5670 5669 5667 5667 5668 5668 5669 5669 5670 5670 5666 5663 5665 5664 5662 5663 5664 5664 5667 5668 5666 5665 5663 5662 5661 5660 5658 5652 5647 5653 5659 5661 5664 5668 5666 5662 5660 5658 5655 5654 5655 5655 5653 5647 5640 5644 5646 5638 5634 5631 5621 5624 5645 5659 5663 5663 5660 5656 5654 5651 5649 5650 5648 5645 5643 5642 5639 5637
5662 5662 5662 5663 5661 5659 5658 5654 5655 5657 5654 5655 5662 5663 5660 5662 5664 5666 5666 5664 5661 5659 5658 5657 5657 5658 5658 5658 5660 5659 5655 5653 5655 5655 5653 5655 5656 5655 5658 5659 5656 5655 5654 5651 5651 5652 5649 5643 5638 5639 5644 5650 5655 5658 5655 5651 5650 5648 5645 5646 5649 5647 5645 5640 5632 5635 5638 5630 5627 5624 5609 5609 5632 5650 5651 5652 5654 5652 5647 5644 5640 5636 5632 5630 5630 5631 5631 5630
5654 5653 5652 5653 5652 5650 5648 5647 5650 5650 5647 5650 5655 5653 5651 5652 5654 5657 5658 5655 5651 5650 5650 5648 5648 5648 5647 5649 5649 5647 5646 5644 5643 5646 5645 5644 5646 5647 5649 5649 5646 5646 5646 5642 5642 5644 5640 5635 5632 5630 5631 5635 5642 5648 5647 5642 5640 5637 5636 5640 5640 5637 5637 5633 5626 5626 5624 5618 5620 5616 5601 5601 5622 5638 5641 5643 5645 5645 5642 5637 5628 5620 5618 5618 5618 5621 5623 5622
5646 5645 5643 5643 5643 5641 5639 5641 5644 5642 5640 5643 5644 5644 5645 5644 5645 5649 5650 5647 5643 5642 5641 5640 5640 5639 5639 5640 5639 5638 5639 5634 5631 5636 5637 5634 5636 5639 5640 5640 5638 5638 5638 5635 5634 5634 5631 5628 5626 5622 5620 5621 5627 5635 5637 5635 5632 5626 5626 5631 5629 5627 5627 5623 5619 5616 5607 5605 5614 5605 5591 5598 5613 5620 5625 5632 5634 5634 5635 5625 5610 5607 5613 5614 5612 5612 5612 5611
5636 5637 5635 5634 5634 5633 5632 5636 5637 5632 5632 5634 5633 5634 5637 5636 5638 5643 5641 5638 5636 5635 5632 5631 5632 5632 5631 5631 5630 5630 5631 5627 5623 5625 5627 5626 5626 5628 5630 5630 5629 5630 5629 5626 5626 5625 5621 5620 5620 5615 5611 5611 5614 5620 5626 5626 5621 5615 5615 5619 5619 5619 5618 5612 5610 5606 5596 5597 5602 5592 5584 5594 5604 5603 5606 5614 5616 5616 5616 5609 5599 5602 5608 5608 5605 5603 5603 5603
5627 5628 5628 5626 5624 5624 5626 5628 5626 5622 5624 5625 5622 5624 5627 5628 5630 5633 5631 5629 5629 5627 5624 5622 5624 5624 5621 5622 5622 5620 5621 5621 5618 5617 5618 5619 5618 5620 5622 5621 5620 5620 5619 5618 5620 5618 5611 5609 5611 5607 5602 5602 5604 5608 5613 5613 5607 5603 5604 5607 5609 5609 5608 5605 5598 5593 5591 5590 5585 5583 5583 5584 5588 5593 5593 5593 5594 5593 5595 5596 5594 5594 5596 5596 5596 5595 5594 5595
5617 5618 5618 5617 5614 5616 5619 5619 5616 5614 5615 5615 5612 5613 5617 5619 5620 5620 5621 5620 5619 5618 5616 5613 5615 5615 5612 5613 5613 5609 5610 5613 5610 5608 5609 5609 5610 5612 5613 5612 5612 5612 5612 5612 5611 5610 5603 5597 5600 5600 5594 5594 5597 5597 5600 5599 5594 5593 5594 5594 5597 5598 5598 5595 5587 5584 5587 5580 5569 5575 5581 5574 5575 5583 5581 5577 5578 5579 5581 5584 5583 5583 5584 5584 5584 5582 5581 5582
5607 5608 5608 5608 5607 5609 5610 5609 5608 5606 5606 5606 5603 5604 5608 5610 5610 5610 5611 5609 5607 5608 5606 5603 5606 5607 5604 5605 5603 5598 5599 5600 5599 5600 5600 5599 5600 5601 5602 5603 5603 5602 5604 5603 5600 5598 5592 5585 5590 5592 5585 5584 5587 5586 5589 5589 5584 5584 5583 5581 5584 5587 5587 5584 5579 5579 5579 5568 5560 5567 5570 5565 5567 5570 5567 5565 5568 5568 5569 5571 5570 5571 5572 5572 5571 5569 5567 5567
5598 5598 5598 5598 5599 5601 5600 5599 5599 5597 5597 5597 5594 5596 5599 5600 5600 5602 5600 5596 5595 5598 5598 5593 5595 5598 5596 5596 5593 5588 5588 5588 5587 5589 5590 5589 5589 5590 5591 5592 5592 5592 5594 5592 5590 5588 5581 5576 5581 5581 5573 5573 5576 5577 5579 5578 5574 5572 5571 5570 5572 5575 5577 5576 5571 5570 5568 5560 5558 5561 5558 5555 5556 5555 5556 5557 5557 5557 5558 5559 5558 5559 5559 5559 5559 5557 5555 5554
5589 5589 5590 5589 5590 5592 5591 5590 5590 5588 5589 5589 5586 5588 5591 5588 5589 5592 5590 5586 5584 5587 5588 5584 5584 5586 5585 5585 5584 5580 5579 5579 5578 5579 5580 5580 5579 5579 5580 5581 5583 5583 5582 5582 5582 5579 5573 5568 5571 5570 5562 5560 5567 5569 5567 5566 5562 5558 5557 5559 5563 5566 5567 5565 5561 5560 5558 5553 5552 5552 5548 5546 5545 5543 5545 5546 5545 5546 5547 5546 5547 5547 5547 5548 5547 5545 5544 5543
5580 5580 5581 5581 5581 5583 5582 5581 5581 5579 5580 5582 5579 5578 5580 5579 5579 5579 5579 5579 5576 5575 5577 5575 5573 5574 5573 5573 5573 5571 5570 5570 5569 5569 5569 5569 5570 5569 5568 5570 5573 5573 5573 5574 5572 5570 5566 5561 5561 5562 5551 5548 5560 5561 5555 5554 5550 5543 5545 5552 5556 5558 5555 5553 5552 5552 5547 5542 5542 5542 5539 5538 5537 5535 5534 5533 5533 5534 5533 5534 5536 5536 5535 5535 5534 5533 5532 5531
5571 5570 5572 5572 5571 5574 5573 5572 5573 5571 5572 5574 5571 5568 5569 5570 5570 5568 5567 5568 5567 5566 5567 5566 5564 5563 5562 5561 5561 5561 5560 5559 5559 5560 5559 5558 5559 5560 5559 5559 5561 5562 5564 5565 5561 5560 5560 5554 5552 5553 5541 5539 5553 5554 5547 5543 5534 5530 5543 5550 5548 5547 5546 5543 5543 5541 5537 5533 5532 5531 5529 5529 5530 5528 5526 5524 5522 5522 5521 5520 5522 5523 5523 5523 5522 5521 5520 5519